Погода в Григориополе

Молдова     47°08′46″N   29°17′36″E
темп.,
°C
ветер,
м/с
пор.,
м/с
влажн.,
%
обл.,
%
осадки,
мм/ч
давл.,
гПа
погр.,
м
21 января, чт
чт2123:00−5юв239247 0.0 102243
02:00−5юв239224 0.0 102234
05:00−5юв23925 0.0 102225
08:00−4ююв349112 0.0 102263
11:000ююв468050 0.0 1023279
14:00+2ююв478156 0.0 1021353
17:000ююв468922 0.0 102198
20:00−1ююв469325 0.0 1020115
22 января, пт
пт2223:00−1ююв469367 0.0 1020122
02:00−1ю479239 0.0 1019132
05:00−1ю479045 0.0 1018116
08:00−1ю489053 0.0 1018152
11:00+3ю51175100 0.0 1017424
14:00+6ю5116783 0.0 1015531
17:00+2ююв3483100 0.0 101467
20:00+1ююв468863 0.0 101399
23 января, сб
сб2323:00+1ю499030 0.0 1013167
02:00+1ююв498847 0.0 1012160
05:00+1ююв488893 0.0 1011138
08:00+1ю4108879 0.0 1011194
11:00+5ю6107682 0.0 1010351
14:00+7ююв5107391 0.0 1009356
17:00+5ююв51193100 0.0 1007217
20:00+4ююв5119194 0.0 1007218
24 января, вс
вс2423:00+6ююв81792100 0.0 1005500
02:00+7ю9198999 0.0 1004680
05:00+8ююв91888100 0.0 1002757
08:00+8ююв101893100 0.5 1001753
11:00+10ю9167497 0.3 10011250
14:00+11ююз8115851 0.3 10011117
17:00+8ю5137021 0.0 1002362
20:00+7юз6147432 0.0 1004422
25 января, пн
пн2523:00+4ююз35800 0.0 100586
02:00+3ююв458315 0.0 100583
05:00+3юв488658 0.0 1003134
08:00+6юв7169679 0.0 1001519
11:00+8ююв101890100 0.3 997870
14:00+8ююв122091100 3.8 9921093
17:00+8ююз101691100 4.1 989915
20:00+5ююз111964100 4.4 991726